Location: *
(52.2090°N, 4.1550°W)
Time: 06:52:01
(UTC+00:00)

Cosmos 1862 Rocket - Pass Details

Date: 19 July 2019
Orbit: 604 x 633 km, 82.5° (Epoch: 24 August)

Event Time Altitude Azimuth Distance (km) Brightness Sun altitude
Rises 22:56:42 0° 348° (NNW) 2,875 8.8 -14.6°
Reaches altitude 10° 22:58:55 10° 348° (NNW) 1,967 7.5 -14.8°
Maximum altitude 23:03:17 86° 262° (W) 616 3.5 -15.0°
Enters shadow 23:05:42 26° 173° (S) 1,207 4.5 -15.1°
